Location: Katowice
(50.2611°N, 19.0242°E)
Time: 05:30:52
(UTC+02:00)

Tiros 1 - Pass Details

Date: 01 September 2019
Orbit: 630 x 664 km, 48.4° (Epoch: 21 September)

Event Time Altitude Azimuth Distance (km) Brightness Sun altitude
Rises 21:34:29 0° 233° (SW) 2,914 10.7 -18.6°
Reaches altitude 10° 21:36:53 10° 227° (SW) 2,006 9.7 -18.9°
Enters shadow 21:41:07 42° 160° (SSE) 905 7.5 -19.4°
